Location: Cella
(44.7333°N, 10.5667°E)
Time: 08:48:27
(UTC+00:00)

COSMOS 2251 DEB - Pass Details

Date: 04 October 2021
Orbit: 709 x 785 km, 74.1° (Epoch: 21 October)

Event Time Altitude Azimuth Distance (km) Brightness Sun altitude
Rises 19:54:42 0° 349° (N) 3,198 ? -32.1°
Reaches altitude 10° 19:57:39 10° 5° (N) 2,255 ? -32.6°
Enters shadow 19:58:18 13° 11° (N) 2,074 ? -32.7°
